Weather in Kosh-Elga

Russia / Republic of Bashkortostan     53°54′52″N   54°13′50″E
temp.,
°C
wind,
m/s
gust,
m/s
humid.,
%
clouds,
%
prec.,
mm/h
press.,
hPa
HPBL,
m
28 february, sun
sun2823:00−5se5896100 2.3 999267
02:00−3sse3797100 1.4 998222
05:00−2s2398100 2.4 998117
08:00−4nw239896 0.6 99959
11:00−5nnw459686 0.7 1000229
14:00−6n579596 0.1 1001321
17:00−9nnw589498 0.1 1003338
20:00−13nnw499599 0.1 1006261
1 march, mon
mon123:00−15nnw349897 0.1 100971
02:00−16nw349899 0.1 101182
05:00−17nw339793 0.1 101374
08:00−17nnw249791 0.1 1015102
11:00−15nw349486 0.2 1017189
14:00−14nw339290 0.1 1018290
17:00−14nw359495 0.1 1019343
20:00−20nw22100100 0.0 102020
2 march, tue
tue223:00−22w1210086 0.0 102020
02:00−22wsw2310090 0.0 102025
05:00−24sw3410090 0.0 101863
08:00−22ssw4910092 0.0 1016153
11:00−18ssw7139996 0.1 1014268
14:00−14ssw81495100 0.1 1010367
17:00−12ssw91594100 0.7 1008535
20:00−10ssw81594100 0.8 1005604
3 march, wed
wed323:00−7ssw81494100 1.8 1003632
02:00−5ssw71395100 1.0 1000546
05:00−5ssw61196100 1.6 998408
08:00−5sw4896100 0.7 998274
11:00−4wsw599596 0.9 999403
14:00−3wnw6893100 0.2 1000682
17:00−4nw5892100 0.3 1001545
20:00−5nw5893100 0.1 1002525
4 march, thu
thu423:00−7nw4896100 0.2 1004245
02:00−9wnw359799 0.1 1005107
05:00−9nw499696 0.3 1007265
08:00−12nw469889 0.1 1008121
11:00−11wnw489694 0.1 1010309
14:00−9w5894100 0.0 1011449
17:00−8wsw61094100 0.1 1012545
20:00−9sw71495100 0.1 1011459